Location: Stockholm
(59.3293°N, 18.0686°E)
Time: 02:20:56
(UTC+02:00)

ISS - Visible Passes

Search period start: 26 May 2018 00:00
Search period end: 05 June 2018 00:00
Orbit: 402 x 407 km, 51.6° (Epoch: 26 May)

Date Brightness Start Highest point End Pass type
(mag) Time Alt. Az. Time Alt. Az. Time Alt. Az.
26 May -1.8 01:15:59 10° SW 01:17:15 12° SSW 01:17:15 12° SSW visible
26 May -2.4 22:47:11 10° SW 22:49:45 21° S 22:52:20 10° SE visible
27 May -2.1 00:23:28 10° WSW 00:25:30 16° SSW 00:26:26 14° S visible
27 May -2.2 23:31:12 10° WSW 23:33:32 18° SSW 23:35:43 11° SSE visible
29 May -1.7 00:16:04 10° SW 00:17:09 11° SSW 00:17:41 11° SSW visible
29 May -1.8 23:23:20 10° WSW 23:25:12 14° SSW 23:27:03 10° SSE visible
31 May -1.4 23:16:21 10° SW 23:16:46 10° SSW 23:17:10 10° SSW visible
